#timestamp,LO_Frequency,Hit,StdDev 
1501916415.4,286047002.8,N,1.1
1501916435.2,286047002.4,N,1.1
1501916455.1,286047001.9,N,1.1
1501916456.0,286047001.9,N,1.1
1501916475.8,286047002.4,N,1.1
1501916495.7,286047001.9,N,1.1
1501916515.5,286047002.5,N,1.1
1501916535.3,286047002.5,N,1.1
1501916555.2,286046999.8,N,1.1
1501916575.0,286047002.8,N,1.2
1501916575.9,286047002.8,N,1.2
1501916595.8,286047001.9,N,1.2
1501916615.6,286047002.4,N,1.1
1501916635.4,286047000.3,N,1.2
1501916655.3,286046999.7,N,1.2
1501916675.1,286047002.4,N,1.1
1501916695.8,286047002.6,N,1.1
1501916715.7,286047002.2,N,1.1
1501916735.5,286047002.0,N,1.1
1501916755.4,286047002.5,N,1.1
1501916775.2,286046999.8,N,1.1
1501916795.0,286047002.1,N,1.1
1501916795.9,286047002.1,N,1.1
1501916815.8,286047002.2,N,1.1
1501916835.6,286047001.6,N,1.0
1501916855.5,286047001.6,N,1.0
1501916875.3,286047002.7,N,1.0
1501916895.1,286047002.1,N,1.0
1501916915.9,286047002.0,N,0.9
1501916935.7,286047001.9,N,0.9
1501916955.6,286047002.6,N,0.9
1501916975.4,286047002.1,N,0.9
1501916995.2,286047001.9,N,0.9
1501917015.1,286047002.0,N,0.9
1501917016.0,286047002.0,N,0.8
1501917035.8,286046999.7,N,0.9
1501917055.6,286047002.2,N,0.9
1501917075.5,286047002.3,N,0.9
1501917095.3,286047001.7,N,0.8
1501917115.2,286047002.4,N,0.8
1501917135.9,286047002.1,N,0.8
1501917155.7,286047002.2,N,0.8
1501917175.6,286047001.7,N,0.8
1501917195.4,286047001.9,N,0.8
1501917215.3,286047004.1,Y,0.0
1501917235.1,286046999.7,P,1.1
1501917236.0,286046999.7,N,1.0
1501917255.8,286047002.8,N,1.4
1501917275.7,286046999.8,N,1.3
1501917295.5,286046999.9,N,1.2
1501917315.4,286047000.3,N,1.2
1501917335.2,286046999.7,N,1.1
1501917355.0,286047001.9,N,1.1
1501917355.9,286047001.9,N,1.2
1501917375.8,286046999.7,N,1.1
1501917395.6,286047000.0,N,1.1
1501917415.5,286046999.9,N,1.1
1501917435.3,286046999.9,N,1.1
1501917455.1,286046999.7,N,1.0
1501917475.9,286046999.9,N,1.0
1501917495.7,286047001.0,N,1.0
1501917515.6,286047000.6,N,1.0
1501917535.4,286046998.6,N,1.0
1501917555.2,286046998.1,N,1.1
1501917575.1,286046998.4,N,1.2
1501917576.0,286046998.4,N,1.2
1501917595.8,286047000.7,N,1.2
1501917615.7,286046998.5,N,1.2
1501917635.5,286046998.7,N,1.2
1501917655.3,286046998.5,N,1.2
1501917675.2,286046998.6,N,1.2
1501917695.0,286046999.0,N,1.2
1501917695.9,286046999.0,N,1.2
1501917715.7,286046996.7,N,1.3
1501917735.6,286046997.4,N,1.3
1501917755.4,286046999.6,N,1.3
1501917775.3,286047000.3,N,1.3
1501917795.1,286046998.5,N,1.2
1501917815.8,286046997.1,N,1.2
1501917835.7,286046997.6,N,1.3
1501917855.5,286046996.6,N,1.3
1501917875.4,286046996.7,N,1.4
1501917895.2,286046996.8,N,1.4
1501917915.0,286046998.0,N,1.3
1501917915.9,286046998.0,N,1.2
1501917935.8,286046995.3,Y,0.0
1501917955.6,286046996.6,P,1.0
1501917975.5,286046997.1,N,0.9
1501917995.3,286046997.1,P,0.8
1501918015.1,286046996.8,Y,0.0
1501918035.9,286047000.9,P,1.8
1501918055.7,286047001.2,N,1.7
1501918075.6,286046998.2,N,1.7
1501918095.4,286046998.3,N,1.6
1501918115.2,286047000.5,N,1.5
1501918135.1,286047001.1,N,1.5
1501918136.0,286047001.1,N,1.5
1501918155.8,286047000.8,N,1.4
1501918175.7,286046998.5,N,1.4
1501918195.5,286047001.1,N,1.4
1501918215.3,286046998.4,N,1.4
1501918235.2,286047000.6,N,1.4
1501918255.0,286047001.2,N,1.4
1501918255.9,286047001.2,N,1.4
1501918275.8,286046998.3,N,1.4
1501918295.6,286047001.1,N,1.4
1501918315.4,286046998.6,N,1.4
1501918335.3,286046998.3,N,1.4
1501918355.1,286046999.1,N,1.4
1501918375.9,286046996.5,N,1.5
1501918395.7,286046999.6,N,1.5
1501918415.5,286046999.3,N,1.4
1501918435.4,286046996.7,N,1.5
1501918455.2,286046996.5,N,1.6
1501918475.1,286046997.4,N,1.6
1501918476.0,286046997.4,N,1.6
1501918495.8,286046995.3,N,1.8
1501918515.7,286042082.7,Y,0.0
1501918535.5,286046996.6,P,1.2
1501918555.3,286046997.1,N,1.1
1501918575.2,286046995.1,P,1.4
1501918595.0,286046998.0,N,1.3
1501918595.9,286046998.0,N,1.3
1501918615.8,286046995.3,Y,0.0
1501918635.6,286046999.0,P,0.8
1501918655.4,286046999.0,N,0.8
1501918675.3,286046998.6,N,0.7
1501918695.1,286046998.9,N,0.6
1501918715.9,286046999.0,N,0.6
1501918735.7,286046999.4,N,0.6
1501918755.5,286046999.1,N,0.6
1501918775.4,286046996.9,Y,0.0
1501918795.2,286046998.5,P,0.1
1501918815.1,286046998.5,P,0.1
1501918816.0,286046998.5,P,0.1
1501918835.8,286047000.8,Y,0.0
1501918855.6,286047000.1,P,0.8
1501918875.5,286047002.3,N,1.5
1501918895.3,286047000.1,N,1.3
1501918915.2,286047000.2,N,1.2
1501918935.9,286047000.1,N,1.1
1501918955.7,286046999.7,N,1.0
1501918975.6,286047002.5,N,1.2
1501918995.4,286047000.1,N,1.2
1501919015.2,286046999.8,N,1.1
1501919035.1,286046999.9,N,1.1
1501919036.0,286046999.9,N,1.0
1501919055.8,286047000.8,N,1.0
1501919075.7,286047000.6,N,1.0
1501919095.5,286047000.4,N,0.9
1501919115.3,286047000.0,N,0.9
1501919135.2,286047000.9,N,0.9
1501919155.0,286047000.7,N,0.9
1501919155.9,286047000.7,N,0.9
1501919175.8,286047001.2,N,0.9
1501919195.6,286046998.2,N,1.0
1501919215.4,286046998.5,N,1.0
1501919235.3,286046998.8,N,1.0
1501919255.1,286046998.2,N,1.1
1501919275.9,286046998.3,N,1.1
1501919295.7,286046999.1,N,1.1
1501919315.5,286046996.8,N,1.2
1501919335.4,286046997.3,N,1.3
1501919355.2,286046996.7,N,1.4
1501919375.1,286046996.7,N,1.5
1501919376.0,286046996.7,N,1.6
1501919395.8,286046999.1,N,1.6
1501919415.6,286046999.0,N,1.5
1501919435.5,286046998.8,N,1.5
1501919455.3,286046998.8,N,1.5
1501919475.2,286046998.7,N,1.5
1501919495.9,286046998.6,N,1.5
1501919515.7,286047000.7,N,1.4
1501919535.6,286047001.2,N,1.4
1501919555.4,286047000.6,N,1.4
1501919575.2,286047000.0,N,1.4
1501919595.1,286047001.0,N,1.4
1501919596.0,286047001.0,N,1.5
1501919615.8,286046999.9,N,1.4
1501919635.7,286047000.0,N,1.4
1501919655.5,286046999.9,N,1.4
1501919675.3,286047000.5,N,1.4
1501919695.2,286047000.9,N,1.4
1501919715.0,286047001.0,N,1.4
1501919715.9,286047001.0,N,1.4
1501919735.8,286047001.1,N,1.4
1501919755.6,286047000.0,N,1.4
1501919775.4,286046999.7,N,1.4
1501919795.3,286047000.1,N,1.4
1501919815.1,286047002.7,N,1.5
1501919835.9,286047002.6,N,1.6
1501919855.7,286047001.5,N,1.6
1501919875.5,286047001.3,N,1.5
1501919895.4,286047001.8,N,1.4
1501919915.2,286047003.1,N,1.3
1501919935.1,286047003.4,N,1.3
1501919936.0,286047003.4,N,1.3
1501919955.8,286047003.7,N,1.4
1501919975.6,286047003.9,N,1.4
1501919995.5,286047004.2,N,1.5
